#timestamp,LO_Frequency,Hit,StdDev 
1553814015.9,286047002.6,N
1553814035.7,286047004.1,N
1553814055.5,286047003.9,N
1553814075.4,286047001.5,N
1553814095.2,286047001.4,N
1553814115.1,286047001.9,N
1553814116.0,286047001.9,N
1553814135.8,286047002.1,N
1553814155.6,286047004.4,N
1553814175.5,286047004.4,N
1553814195.3,286047003.6,N
1553814215.2,286047004.3,N
1553814235.9,286047005.7,Y
1553814255.7,286047002.6,P
1553814275.6,286047002.1,P
1553814295.4,286047002.3,P
1553814315.3,286047000.7,N
1553814335.1,286047000.8,N
1553814355.8,286047001.0,N
1553814375.7,286047001.2,N
1553814395.5,286047001.0,N
1553814415.4,286047002.5,Y
1553814435.2,286047001.1,P
1553814455.0,286047000.8,P
1553814455.9,286047000.8,N
1553814475.8,286047000.7,N
1553814495.6,286047000.4,N
1553814515.5,286047000.5,N
1553814535.3,286047011.9,Y
1553814555.1,286046999.2,P
1553814575.9,286046998.5,N
1553814595.7,286046996.6,P
1553814615.5,286046997.3,N
1553814635.4,286046997.8,N
1553814655.2,286046999.0,N
1553814675.1,286046998.1,N
1553814676.0,286046998.1,N
1553814695.8,286046998.4,N
1553814715.6,286046996.6,Y
1553814735.5,286047000.4,P
1553814755.3,286046999.0,N
1553814775.2,286046998.5,N
1553814795.9,286046999.9,N
1553814815.7,286047002.1,N
1553814835.6,286047002.2,N
1553814855.4,286046999.4,N
1553814875.2,286046999.1,N
1553814895.1,286046999.2,N
1553814896.0,286046999.2,N
1553814915.8,286046999.5,N
1553814935.7,286046999.4,N
1553814955.5,286046999.5,N
1553814975.3,286047000.8,N
1553814995.2,286047002.6,N
1553815015.9,286047001.7,N
1553815035.7,286047003.6,N
1553815055.6,286047003.9,N
1553815075.4,286047001.8,N
1553815095.2,286047001.4,N
1553815115.1,286047004.2,N
1553815116.0,286047004.2,N
1553815135.8,286047002.3,N
1553815155.7,286047000.0,N
1553815175.5,286047002.1,N
1553815195.3,286047000.1,N
1553815215.2,286047001.3,N
1553815235.0,286046999.7,N
1553815235.9,286046999.7,N
1553815255.7,286047002.4,N
1553815275.6,286047000.7,N
1553815295.4,286047001.2,N
1553815315.3,286046998.7,N
1553815335.1,286047000.6,N
1553815355.8,286047002.2,N
1553815375.7,286046999.9,N
1553815395.5,286047002.3,N
1553815415.3,286047002.5,N
1553815435.2,286047003.9,N
1553815455.0,286047000.9,N
1553815455.9,286047000.9,N
1553815475.8,286047000.8,N
1553815495.6,286047002.7,N
1553815515.4,286047000.2,N
1553815535.3,286047002.3,N
1553815555.1,286047002.1,N
1553815575.8,286047003.5,N
1553815595.7,286047003.5,N
1553815615.5,286047001.5,N
1553815635.4,286046999.8,N
1553815655.2,286046999.2,N
1553815675.0,286046999.0,N
1553815675.9,286046999.0,N
1553815695.8,286047000.7,N
1553815715.6,286047001.1,N
1553815735.4,286047001.1,N
1553815755.3,286046998.4,N
1553815775.1,286047000.1,N
1553815795.9,286047002.4,N
1553815815.7,286046999.7,N
1553815835.5,286047002.3,N
1553815855.4,286047001.7,N
1553815875.2,286047002.3,N
1553815895.1,286047004.4,Y
1553815896.0,286047004.4,P
1553815915.8,286047002.7,N
1553815935.6,286047001.6,N
1553815955.5,286047003.4,N
1553815975.3,286047006.5,Y
1553815995.2,286047004.0,P
1553816015.9,286047001.4,N
1553816035.7,286047001.5,N
1553816055.6,286046998.4,N
1553816075.4,286046999.4,N
1553816095.2,286046998.3,N
1553816115.1,286046999.5,N
1553816116.0,286046999.5,N
1553816135.8,286046997.2,N
1553816155.7,286046999.5,N
1553816175.5,286046998.7,N
1553816195.3,286047001.0,N
1553816215.2,286046998.1,N
1553816235.0,286046998.7,N
1553816235.9,286046998.7,N
1553816255.7,286046996.6,N
1553816275.6,286046996.7,N
1553816295.4,286046995.0,N
1553816315.3,286046995.5,N
1553816335.1,286046997.9,N
1553816355.8,286046997.8,N
1553816375.7,286046999.4,N
1553816395.5,286046997.6,N
1553816415.4,286046997.9,N
1553816435.2,286046997.8,N
1553816455.0,286046996.5,N
1553816455.9,286046996.5,N
1553816475.8,286046997.8,N
1553816495.6,286046996.4,N
1553816515.4,286046993.9,Y
1553816535.3,286046997.7,P
1553816555.1,286046997.4,P
1553816575.9,286046998.9,N
1553816595.7,286046999.2,N
1553816615.5,286046998.3,N
1553816635.4,286046998.2,N
1553816655.2,286046999.0,N
1553816675.0,286046996.7,Y
1553816676.0,286046996.7,P
1553816695.8,286046998.8,N
1553816715.6,286047000.5,N
1553816735.5,286046998.5,N
1553816755.3,286046998.2,N
1553816775.1,286046998.9,N
1553816795.9,286046998.3,N
1553816815.7,286046999.7,N
1553816835.6,286047000.3,N
1553816855.4,286047000.9,N
1553816875.2,286046998.1,N
1553816895.1,286046998.4,N
1553816896.0,286046998.4,N
1553816915.8,286046996.6,Y
1553816935.6,286046999.8,P
1553816955.5,286047000.6,N
1553816975.3,286047002.5,P
1553816995.2,286047002.3,N
1553817015.0,286047002.7,N
1553817015.9,286047002.7,N
1553817035.7,286047002.2,N
1553817055.6,286047002.5,N
1553817075.4,286047001.8,N
1553817095.3,286047003.2,N
1553817115.1,286047005.2,Y
1553817135.8,286047003.3,P
1553817155.7,286047003.2,P
1553817175.5,286047003.3,P
1553817195.4,286047005.1,Y
1553817215.2,286047002.0,P
1553817235.0,286047002.1,P
1553817235.9,286047002.1,P
1553817255.8,286047000.2,N
1553817275.6,286047000.8,N
1553817295.4,286047000.2,N
1553817315.3,286046998.8,N
1553817335.1,286046999.2,N
1553817355.9,286046999.0,N
1553817375.7,286046998.9,N
1553817395.5,286046999.0,N
1553817415.4,286046998.5,N
1553817435.2,286046997.3,N
1553817455.0,286046996.9,N
1553817455.9,286046996.9,N
1553817475.8,286046996.5,N
1553817495.6,286046999.2,N
1553817515.5,286046999.4,N
1553817535.3,286046998.4,N
1553817555.1,286046999.0,N
1553817575.9,286046999.1,N
1553817595.7,286046999.1,N
